Location: Proctor
(47.8934°N, 114.3048°W)
Time: 08:27:42
(UTC+00:00)

Vanguard 2 Rocket - Pass Details

Date: 18 June 2024
Orbit: 555 x 3303 km, 32.9° (Epoch: 13 July)

Event Time Altitude Azimuth Distance (km) Brightness Sun altitude
Exits shadow 10:49:24 - 220° (SW) 6,493 10.5 -6.8°
Reaches altitude 10° 10:50:51 10° 218° (SW) 6,241 10.5 -6.7°
Maximum altitude 11:07:56 37° 160° (SSE) 4,067 10.0 -4.6°
Drops below altitude 10° 11:21:23 10° 101° (E) 4,978 11.3 -3.0°
Sets 11:25:02 0° 93° (E) 5,642 11.8 -2.5°
